FW9328 Weather Reports


time (UTC)temp
F
wind
direction
speed
knots
gust
knots
rain 1hr
in
rain 24hr
in
rain mn
in
humidity
%
barometer
mb
20210801191106 77 24 1.7 5.2 0.00 1.02 0.00 47 1030.4
20210801190543 77 109 0.0 3.5 0.00 1.02 0.00 48 1030.5
20210801190119 77 139 0.9 3.5 0.00 1.02 0.00 49 1030.5
20210801185541 76 30 0.0 3.5 0.00 1.02 0.00 50 1030.6
20210801185038 76 0 0.9 8.7 0.00 1.02 0.00 50 1030.7
20210801184601 76 32 2.6 8.7 0.00 1.02 0.00 50 1030.7
20210801184048 76 125 0.9 3.5 0.00 1.02 0.00 55 1030.7
20210801183540 75 96 0.9 4.3 0.00 1.02 0.00 52 1030.8
20210801183149 75 0 0.0 7.0 0.00 1.02 0.00 56 1030.8
20210801182600 75 44 3.5 7.0 0.00 1.02 0.00 55 1031.0
20210801182043 75 117 0.9 3.5 0.00 1.02 0.00 54 1031.2
20210801181704 75 0 0.9 5.2 0.00 1.02 0.00 56 1031.1
20210801181039 75 104 1.7 7.0 0.00 1.02 0.00 56 1031.4
20210801180611 74 92 1.7 7.0 0.00 1.02 0.00 58 1031.5
20210801180126 74 360 0.9 7.0 0.00 1.02 0.00 58 1031.5
20210801175543 74 74 0.9 7.0 0.00 1.02 0.00 60 1031.4
20210801175100 74 360 1.7 8.7 0.00 1.02 0.00 58 1031.5
20210801174653 74 23 1.7 8.7 0.00 1.02 0.00 60 1031.6
20210801174056 74 30 1.7 7.8 0.00 1.02 0.00 61 1031.7
20210801173557 73 57 0.9 7.8 0.00 1.02 0.00 61 1031.6
20210801173111 73 17 1.7 7.8 0.00 1.02 0.00 62 1031.7
20210801172546 73 47 3.5 7.8 0.00 1.02 0.00 63 1031.7
20210801172039 73 67 0.9 6.1 0.00 1.02 0.00 63 1031.9
20210801171625 73 43 0.9 7.8 0.00 1.02 0.00 66 1031.9
20210801171057 72 32 1.7 7.8 0.00 1.02 0.00 64 1031.9
20210801170539 72 321 2.6 7.0 0.00 1.02 0.00 64 1031.9
20210801170219 72 43 0.9 6.1 0.00 1.02 0.00 64 1032.0
20210801165548 72 30 0.9 6.1 0.00 1.02 0.00 64 1031.8
20210801165042 72 35 1.7 5.2 0.00 1.02 0.00 66 1031.9
20210801164913 72 36 1.7 7.8 0.00 1.02 0.00 68 1031.8
20210801164041 71 348 2.6 7.8 0.00 1.02 0.00 67 1031.9
20210801163540 71 32 0.9 5.2 0.00 1.02 0.00 67 1031.9
20210801163138 71 55 0.9 4.3 0.00 1.02 0.00 63 1031.8
20210801162539 70 42 1.7 4.3 0.00 1.02 0.00 67 1031.9
20210801162113 70 52 0.9 6.1 0.00 1.02 0.00 69 1031.7
20210801161843 70 41 1.7 6.1 0.00 1.02 0.00 70 1031.9
20210801161039 70 57 0.9 3.5 0.00 1.02 0.00 70 1031.8
20210801160541 69 44 0.0 3.5 0.00 1.02 0.00 69 1031.8
20210801160108 69 0 0.0 3.5 0.00 1.02 0.00 69 1031.8
20210801155539 69 21 0.9 3.5 0.00 1.02 0.00 71 1031.8
20210801155042 68 37 1.7 3.5 0.00 1.02 0.00 71 1031.8
20210801154621 68 33 0.0 1.7 0.00 1.02 0.00 72 1031.7
20210801154041 68 0 0.0 2.6 0.00 1.02 0.00 74 1031.6
20210801153542 67 0 0.9 2.6 0.00 1.02 0.00 69 1031.7
20210801153200 67 182 0.0 2.6 0.00 1.02 0.00 72 1031.7
20210801152545 66 0 0.0 2.6 0.00 1.02 0.00 73 1031.7
20210801152104 66 150 0.0 1.7 0.00 1.02 0.00 72 1031.7
20210801151639 66 0 0.0 1.7 0.00 1.02 0.00 74 1031.7
20210801151038 66 150 0.0 0.9 0.00 1.02 0.00 79 1031.7
20210801150540 65 0 0.0 0.9 0.00 1.02 0.00 83 1031.8
20210801150201 65 0 0.0 2.6 0.00 1.02 0.00 81 1031.8
20210801145538 65 0 0.0 2.6 0.00 1.02 0.00 81 1031.9
20210801145043 65 30 0.0 1.7 0.00 1.02 0.00 81 1031.7
20210801144656 65 0 0.0 1.7 0.00 1.02 0.00 79 1031.9
20210801144041 65 0 0.0 1.7 0.00 1.02 0.00 81 1031.7
20210801143558 64 346 0.9 1.7 0.00 1.02 0.00 80 1031.7
20210801143219 64 328 0.0 1.7 0.00 1.02 0.00 81 1031.7
20210801142549 64 0 0.0 1.7 0.00 1.02 0.00 82 1031.7
20210801142043 64 0 0.0 1.7 0.00 1.02 0.00 84 1031.7
20210801141603 63 0 0.0 1.7 0.00 1.02 0.00 87 1031.7
20210801141046 63 302 0.0 1.7 0.00 1.02 0.00 85 1031.7
20210801140604 63 0 0.0 0.9 0.00 1.02 0.00 87 1031.7
20210801140140 62 0 0.0 0.9 0.00 1.02 0.00 88 1031.7
20210801135603 62 277 0.0 0.9 0.00 1.02 0.00 87 1031.7
20210801135046 62 0 0.0 0.9 0.00 1.02 0.00 92 1031.6
20210801134600 61 0 0.0 0.0 0.00 1.02 0.00 91 1031.5
20210801134110 61 0 0.0 0.0 0.00 1.02 0.00 90 1031.6
20210801133543 61 0 0.0 0.0 0.00 1.02 0.00 91 1031.6
20210801133108 61 0 0.0 0.0 0.00 1.02 0.00 93 1031.7
20210801132544 60 0 0.0 0.0 0.00 1.02 0.00 94 1031.6
20210801132105 60 0 0.0 0.9 0.00 1.02 0.00 93 1031.5
20210801131705 60 0 0.0 0.9 0.00 1.02 0.00 94 1031.5
20210801131118 60 0 0.0 0.9 0.00 1.02 0.00 94 1031.5
20210801130549 59 0 0.0 0.9 0.00 1.02 0.00 94 1031.4
20210801130148 59 0 0.0 0.0 0.00 1.02 0.00 93 1031.4
20210801125543 59 0 0.0 0.0 0.00 1.03 0.00 95 1031.3
20210801125108 58 0 0.0 0.0 0.00 1.03 0.00 94 1031.2
20210801124709 59 0 0.0 0.0 0.00 1.03 0.00 96 1031.2
20210801124058 58 0 0.0 0.0 0.00 1.03 0.00 96 1031.3
20210801123543 58 0 0.0 0.0 0.00 1.03 0.00 96 1031.2
20210801123218 58 0 0.0 0.0 0.00 1.03 0.00 96 1031.3
20210801122543 58 0 0.0 0.0 0.00 1.03 0.00 96 1031.3
20210801122043 58 0 0.0 0.0 0.00 1.03 0.00 96 1031.2
20210801121630 58 0 0.0 0.0 0.00 1.03 0.00 96 1031.2
20210801121044 58 0 0.0 0.0 0.00 1.03 0.00 95 1031.2
20210801120544 58 0 0.0 0.0 0.00 1.03 0.00 95 1031.1
20210801120214 58 0 0.0 0.0 0.00 1.03 0.00 95 1031.0
20210801115608 58 0 0.0 0.0 0.00 1.03 0.00 95 1031.1
20210801115042 58 0 0.0 0.0 0.00 1.03 0.00 95 1031.0
20210801114635 58 0 0.0 0.0 0.00 1.03 0.00 95 1031.1
20210801114045 58 0 0.0 0.0 0.00 1.03 0.00 95 1031.0
20210801113541 58 0 0.0 0.9 0.00 1.03 0.00 95 1031.0
20210801113148 58 0 0.0 1.7 0.00 1.03 0.00 95 1030.9
20210801112543 58 0 0.0 1.7 0.00 1.03 0.00 95 1030.9
20210801112040 58 0 0.0 0.9 0.00 1.03 0.00 95 1030.9
20210801111547 58 0 0.0 0.9 0.00 1.03 0.00 94 1031.0
20210801111041 58 0 0.0 0.9 0.00 1.03 0.00 94 1031.0
20210801110543 58 0 0.0 0.9 0.00 1.03 0.00 94 1030.9
20210801110109 58 0 0.0 0.0 0.00 1.03 0.00 93 1030.9
20210801105540 58 0 0.0 0.9 0.00 1.03 0.00 93 1030.8
20210801105047 58 0 0.0 0.9 0.00 1.03 0.00 92 1030.9
20210801104548 58 0 0.0 1.7 0.00 1.03 0.00 94 1030.8
20210801104041 58 277 0.0 1.7 0.00 1.03 0.00 94 1030.7
20210801103547 58 0 0.0 1.7 0.00 1.03 0.00 94 1030.7
20210801103114 58 0 0.0 0.9 0.00 1.03 0.00 94 1030.7
20210801102553 58 0 0.0 0.9 0.00 1.03 0.00 94 1030.8
20210801102041 58 0 0.0 1.7 0.00 1.03 0.00 95 1030.8
20210801101622 58 0 0.0 1.7 0.00 1.03 0.00 95 1030.7
20210801101038 59 266 0.0 1.7 0.00 1.03 0.00 95 1030.7
20210801100556 59 250 0.0 0.9 0.00 1.03 0.00 95 1030.6
20210801100147 59 0 0.0 0.9 0.00 1.03 0.00 95 1030.6
20210801095541 59 0 0.0 0.9 0.00 1.03 0.00 95 1030.5
20210801095039 59 0 0.0 0.0 0.00 1.03 0.00 95 1030.4
20210801094622 59 0 0.0 0.9 0.00 1.03 0.00 94 1030.4
20210801094039 59 0 0.0 0.9 0.00 1.03 0.00 95 1030.4
20210801093556 59 0 0.0 0.0 0.00 1.03 0.00 94 1030.5
20210801093114 60 0 0.0 0.0 0.00 1.03 0.00 95 1030.4
20210801092540 60 0 0.0 1.7 0.00 1.03 0.00 95 1030.3
20210801092040 60 0 0.0 1.7 0.00 1.03 0.00 95 1030.3
20210801091649 60 0 0.0 2.6 0.00 1.03 0.00 95 1030.3
20210801091040 60 0 0.0 2.6 0.00 1.03 0.00 95 1030.2
20210801090550 60 0 0.0 0.0 0.00 1.03 0.00 95 1030.2
20210801090139 60 0 0.0 0.0 0.00 1.03 0.00 94 1030.2
20210801085540 60 0 0.0 0.9 0.00 1.04 0.00 94 1030.1
20210801085111 60 0 0.0 0.9 0.00 1.04 0.00 94 1030.2
20210801084640 60 0 0.0 0.9 0.00 1.04 0.00 94 1030.2
20210801084039 60 0 0.0 0.9 0.00 1.04 0.00 94 1030.2
20210801083607 60 0 0.0 0.9 0.00 1.04 0.00 94 1030.2
20210801083130 61 0 0.0 0.9 0.00 1.04 0.00 95 1030.3
20210801082540 61 0 0.0 0.0 0.00 1.04 0.00 95 1030.3
20210801082044 61 0 0.0 0.0 0.00 1.04 0.00 95 1030.4
20210801081604 61 0 0.0 0.0 0.00 1.04 0.00 95 1030.5
20210801081054 61 0 0.0 0.0 0.00 1.04 0.00 94 1030.4
20210801080539 61 0 0.0 0.0 0.00 1.04 0.00 94 1030.4
20210801080110 61 0 0.0 0.9 0.00 1.04 0.00 95 1030.5
20210801075548 61 0 0.0 0.9 0.00 1.09 0.00 95 1030.6
20210801075040 61 0 0.0 0.9 0.00 1.09 0.00 95 1030.6
20210801074610 61 0 0.0 0.9 0.00 1.09 0.00 95 1030.6
20210801074040 61 0 0.0 0.9 0.00 1.09 0.00 95 1030.7
20210801073538 61 0 0.0 0.9 0.00 1.09 0.00 94 1030.9
20210801073205 61 0 0.0 0.9 0.00 1.09 0.00 95 1030.8
20210801072540 61 281 0.0 0.9 0.00 1.09 0.00 95 1030.8
20210801072043 61 0 0.0 0.0 0.00 1.09 0.00 94 1031.0
20210801071736 61 0 0.0 0.0 0.00 1.09 0.00 95 1031.0
20210801071053 61 0 0.0 0.0 0.00 1.09 0.00 95 1031.0
20210801070542 61 0 0.0 0.0 0.00 1.09 0.00 95 1031.0
20210801070209 61 0 0.0 0.0 0.00 1.09 0.00 95 1031.0
20210801065541 61 0 0.0 0.0 0.00 1.13 0.00 95 1031.1
20210801065039 61 0 0.0 0.0 0.00 1.13 0.00 94 1031.2
20210801064620 61 0 0.0 0.0 0.00 1.13 0.00 94 1031.3
20210801064045 61 0 0.0 0.9 0.00 1.13 0.00 94 1031.3
20210801063544 61 0 0.0 0.9 0.00 1.13 0.00 94 1031.3
20210801063238 61 281 0.0 0.9 0.00 1.13 0.00 95 1031.3
20210801062540 61 0 0.0 0.9 0.00 1.13 0.00 95 1031.4
20210801062113 61 0 0.0 1.7 0.00 1.13 0.00 95 1031.5
20210801061619 61 0 0.0 1.7 0.00 1.13 0.00 94 1031.4
20210801061047 61 0 0.0 0.9 0.00 1.13 0.00 94 1031.4
20210801060608 61 0 0.0 0.0 0.00 1.13 0.00 94 1031.3
20210801060215 61 0 0.0 0.9 0.00 1.13 0.00 94 1031.3
20210801055552 61 0 0.0 0.9 0.00 1.13 1.13 94 1031.4
20210801055038 61 0 0.0 0.9 0.00 1.13 1.13 94 1031.4
20210801054616 61 0 0.0 1.7 0.00 1.13 1.13 94 1031.4
20210801054040 61 0 0.0 1.7 0.00 1.13 1.13 94 1031.4
20210801053539 61 0 0.0 0.9 0.00 1.13 1.13 95 1031.4
20210801053140 61 0 0.0 0.9 0.00 1.13 1.13 95 1031.4
20210801052542 61 0 0.0 0.9 0.00 1.13 1.13 94 1031.4
20210801052042 61 0 0.0 0.9 0.00 1.13 1.13 94 1031.3
20210801051758 61 281 0.0 0.0 0.00 1.13 1.13 94 1031.3
20210801051038 61 0 0.0 0.9 0.00 1.13 1.13 94 1031.2
20210801050539 61 0 0.0 0.9 0.00 1.13 1.13 93 1031.3
20210801050151 61 0 0.0 0.9 0.00 1.13 1.13 93 1031.3
20210801045538 61 0 0.0 0.9 0.00 1.17 1.13 93 1031.3
20210801045042 61 0 0.0 0.9 0.00 1.17 1.13 92 1031.3
20210801044637 61 281 0.0 0.9 0.00 1.17 1.13 91 1031.3
20210801044041 61 0 0.0 0.9 0.00 1.17 1.13 90 1031.2
20210801043552 61 0 0.0 1.7 0.00 1.17 1.13 89 1031.3
20210801043112 61 0 0.0 1.7 0.00 1.17 1.13 91 1031.2
20210801042549 61 0 0.9 1.7 0.00 1.17 1.13 91 1031.2
20210801042040 62 0 0.9 2.6 0.00 1.17 1.13 90 1031.2
20210801041626 62 272 0.9 2.6 0.00 1.17 1.13 90 1031.3
20210801041050 62 275 0.0 2.6 0.00 1.17 1.13 91 1031.2
20210801040546 61 281 0.0 1.7 0.00 1.17 1.13 90 1031.1
20210801040055 61 0 0.9 1.7 0.00 1.17 1.13 92 1031.1
20210801035554 61 0 0.0 1.7 0.00 1.17 1.13 92 1031.1
20210801035040 61 0 0.0 2.6 0.00 1.17 1.13 92 1031.0
20210801034633 61 0 0.0 2.6 0.00 1.17 1.13 92 1031.0
20210801034108 61 263 0.0 2.6 0.00 1.17 1.13 92 1030.9
20210801033538 61 0 0.9 2.6 0.00 1.17 1.13 93 1030.9
20210801033146 61 290 0.0 1.7 0.00 1.17 1.13 93 1030.9
20210801032544 61 0 0.0 1.7 0.00 1.17 1.13 93 1030.8
20210801032039 61 290 0.0 2.6 0.00 1.17 1.13 92 1030.8
20210801031603 61 0 0.0 2.6 0.00 1.17 1.13 93 1030.8
20210801031103 61 0 0.9 1.7 0.00 1.17 1.13 94 1030.7
20210801030543 61 0 0.0 0.9 0.00 1.17 1.13 94 1030.6
20210801030040 62 0 0.0 0.9 0.00 1.17 1.13 95 1030.5
20210801025554 62 0 0.0 0.9 0.00 1.17 1.13 96 1030.4
20210801025040 62 0 0.0 0.9 0.00 1.17 1.13 96 1030.4
20210801024709 61 0 0.0 0.0 0.00 1.17 1.13 95 1030.4
20210801024038 61 0 0.0 0.0 0.00 1.17 1.13 95 1030.3
20210801023609 61 0 0.0 0.0 0.00 1.17 1.13 95 1030.3
20210801023145 61 0 0.0 0.0 0.00 1.17 1.13 95 1030.3
20210801022554 61 0 0.0 0.9 0.00 1.17 1.13 95 1030.2
20210801022048 61 0 0.0 1.7 0.00 1.17 1.13 95 1030.2
20210801021616 61 0 0.0 2.6 0.00 1.17 1.13 95 1030.2
20210801021044 61 0 0.9 2.6 0.00 1.17 1.13 95 1030.1
20210801020540 61 0 0.9 2.6 0.00 1.17 1.13 95 1030.1
20210801020214 62 0 0.0 2.6 0.00 1.17 1.13 94 1030.1
20210801015542 62 0 0.0 1.7 0.00 1.17 1.13 94 1030.1
20210801015043 62 220 0.0 1.7 0.00 1.17 1.13 95 1030.1
20210801014609 62 220 0.0 1.7 0.00 1.17 1.13 95 1030.1
20210801014043 62 0 0.0 2.6 0.02 1.17 1.13 94 1030.1
20210801013540 62 0 0.0 2.6 0.03 1.17 1.13 94 1030.3
20210801013236 62 198 0.0 2.6 0.04 1.17 1.13 94 1030.3
20210801012554 62 0 0.0 3.5 0.06 1.17 1.13 94 1030.2
20210801012042 62 0 0.0 3.5 0.07 1.17 1.13 94 1030.2
20210801011555 61 0 0.9 2.6 0.08 1.17 1.13 93 1030.2
20210801011048 62 0 0.9 2.6 0.09 1.17 1.13 92 1030.2
20210801010541 62 226 0.9 2.6 0.11 1.17 1.13 93 1030.2
20210801010119 62 0 0.9 3.5 0.12 1.17 1.13 93 1030.4
20210801005541 62 217 0.9 3.5 0.14 1.17 1.13 92 1030.2
20210801005043 62 213 0.0 3.5 0.16 1.17 1.13 93 1030.2
20210801004723 62 230 0.9 3.5 0.18 1.17 1.13 92 1030.2
20210801004053 62 238 0.9 3.5 0.18 1.16 1.11 92 1030.2
20210801003544 62 217 0.9 3.5 0.19 1.15 1.10 93 1030.2
20210801003120 62 234 0.9 3.5 0.19 1.13 1.08 94 1030.3
20210801002601 62 0 0.9 4.3 0.21 1.12 1.07 95 1030.2
20210801002044 62 0 0.0 4.3 0.22 1.11 1.05 94 1030.3
20210801001620 62 227 0.0 4.3 0.23 1.10 1.04 94 1030.3
20210801001042 62 209 0.9 5.2 0.24 1.09 1.04 94 1030.3
20210801000542 62 225 0.9 5.2 0.24 1.07 1.02 94 1030.4
20210801000133 62 246 0.9 4.3 0.25 1.05 1.01 95 1030.4
20210731235603 62 207 0.9 6.1 0.25 1.04 0.99 95 1030.4
20210731235043 62 215 1.7 6.1 0.25 1.02 0.97 94 1030.5
20210731234624 62 248 1.7 5.2 0.25 1.00 0.95 95 1030.5
20210731234040 62 249 0.9 5.2 0.25 0.98 0.93 94 1030.6
20210731233541 62 242 0.9 6.1 0.26 0.96 0.91 94 1030.6
20210731233107 62 274 0.9 6.1 0.27 0.94 0.89 94 1030.7
20210731232543 62 269 0.9 4.3 0.26 0.91 0.86 94 1030.6
20210731232041 62 248 0.9 4.3 0.27 0.89 0.84 94 1030.6
20210731231703 62 241 0.0 2.6 0.28 0.87 0.82 94 1030.5
20210731231042 62 277 0.0 5.2 0.29 0.85 0.80 94 1030.7
20210731230541 63 0 0.9 5.2 0.30 0.83 0.78 94 1030.6
20210731230135 63 250 0.9 3.5 0.32 0.81 0.76 94 1030.5
20210731225609 63 211 0.9 3.5 0.34 0.79 0.74 94 1030.5
20210731225049 63 214 0.9 4.3 0.36 0.77 0.72 94 1030.5
20210731224838 63 255 1.7 4.3 0.38 0.75 0.70 94 1030.5
20210731224044 63 280 1.7 3.5 0.39 0.72 0.67 94 1030.5
20210731223604 63 277 0.9 3.5 0.41 0.70 0.65 95 1030.4
20210731223107 63 0 0.0 4.3 0.43 0.67 0.62 95 1030.4
20210731222543 63 223 0.9 4.3 0.44 0.65 0.60 95 1030.4
20210731222047 63 215 0.9 3.5 0.43 0.62 0.57 95 1030.5
20210731221641 63 225 0.9 3.5 0.42 0.58 0.54 95 1030.5
20210731221043 63 242 1.7 3.5 0.39 0.56 0.51 94 1030.6
20210731220606 63 196 0.9 3.5 0.36 0.52 0.47 94 1030.6
20210731220119 63 230 0.9 3.5 0.32 0.48 0.43 93 1030.5
20210731215601 63 271 0.9 5.2 0.29 0.45 0.40 93 1030.4
20210731215043 63 0 1.7 5.2 0.25 0.41 0.36 92 1030.5
20210731214659 64 219 0.0 7.8 0.21 0.37 0.32 92 1030.5
20210731214044 64 217 1.7 12.2 0.17 0.33 0.28 90 1030.4
20210731213544 65 248 2.6 12.2 0.12 0.28 0.23 88 1030.4
20210731213129 66 279 5.2 11.3 0.08 0.24 0.19 85 1030.3
20210731212549 68 269 2.6 8.7 0.04 0.20 0.15 82 1029.9
20210731212043 69 271 0.0 1.7 0.03 0.19 0.14 81 1029.9
20210731211659 70 0 0.0 0.9 0.01 0.17 0.12 80 1029.9
20210731211044 70 0 0.0 1.7 0.01 0.17 0.12 78 1029.8
20210731210543 70 0 0.0 1.7 0.00 0.16 0.11 76 1029.8
20210731210138 71 0 0.0 1.7 0.00 0.16 0.11 74 1029.8
20210731205543 71 0 0.0 2.6 0.00 0.16 0.11 74 1029.8
20210731205109 72 0 0.0 2.6 0.00 0.16 0.11 71 1029.8
20210731204643 73 0 0.0 3.5 0.00 0.16 0.11 70 1029.9
20210731204112 73 0 0.9 3.5 0.00 0.16 0.11 69 1029.9
20210731203550 73 0 0.0 3.5 0.00 0.16 0.11 64 1029.8
20210731203231 73 83 0.9 3.5 0.00 0.16 0.11 65 1029.9
20210731202539 73 88 0.9 3.5 0.00 0.16 0.11 64 1029.8
20210731202049 73 0 0.9 2.6 0.00 0.16 0.11 66 1029.8
20210731201722 73 132 0.9 2.6 0.00 0.16 0.11 67 1029.9
20210731201045 73 0 0.0 0.9 0.00 0.16 0.11 66 1029.9
20210731200543 72 0 0.0 3.5 0.00 0.16 0.11 67 1029.9
20210731200133 73 108 0.0 3.5 0.00 0.16 0.11 67 1030.0
20210731195548 73 57 0.9 2.6 0.00 0.16 0.11 67 1030.1
20210731195041 73 28 0.9 2.6 0.00 0.16 0.11 66 1030.0
20210731194616 73 0 0.0 1.7 0.00 0.16 0.11 68 1030.0
20210731194104 73 0 0.0 2.6 0.00 0.16 0.11 63 1030.0
20210731193541 73 0 0.0 2.6 0.00 0.16 0.11 65 1030.0
20210731193133 73 334 0.0 3.5 0.00 0.16 0.11 66 1030.1
20210731192551 73 5 0.0 3.5 0.00 0.16 0.11 66 1030.0
20210731192044 72 0 0.0 3.5 0.00 0.16 0.11 67 1030.0
20210731191633 73 24 0.0 2.6 0.00 0.16 0.11 69 1030.2